Lacrosse 4 - Orbit

View from above orbital plane
View from above orbital plane
View from above satellite
View from above satellite

Ground track
Ground track

The orbit data is extracted from the following two-line orbital elements,

1 26473U 00047A   13142.92547087 0.00000400  00000-0  74482-4 0    02
2 26473  68.0114  82.0293 0007000 270.4932  89.5067 14.64967538    00
Epoch (UTC): 22 May 2013 22:12:40
Eccentricity: 0.0007000
inclination: 68.0114°
perigee height: 672 km
apogee height: 682 km
right ascension of ascending node: 82.0293°
argument of perigee: 270.4932°
revolutions per day: 14.64967538
mean anomaly at epoch: 89.5067°
orbit number at epoch: 0

The dashed part of the orbit path shows where the satellite is in the earth's shadow,  

Developed and maintained by Chris Peat, Heavens-Above GmbH. Please read the updated FAQ before sending e-mail. Imprint. DLR